TimePDT,TemperatureF,Dew PointF,Humidity,Sea Level PressureIn,VisibilityMPH,Wind Direction,Wind SpeedMPH,Gust SpeedMPH,PrecipitationIn,Events,Conditions,WindDirDegrees,DateUTC
12:53 AM,50.0,46.0,86,29.97,10.0,SW,3.5,-,N/A,,Overcast,230,2013-10-10 07:53:00
1:53 AM,50.0,46.0,86,29.95,10.0,WSW,3.5,-,N/A,,Overcast,250,2013-10-10 08:53:00
2:53 AM,50.0,44.1,80,29.95,10.0,WSW,5.8,-,N/A,,Overcast,250,2013-10-10 09:53:00
3:53 AM,50.0,45.0,83,29.95,10.0,WSW,4.6,-,N/A,,Overcast,250,2013-10-10 10:53:00
4:53 AM,50.0,45.0,83,29.94,10.0,WSW,4.6,-,0.00,Rain,Light Rain,240,2013-10-10 11:53:00
5:53 AM,50.0,43.0,77,29.94,10.0,West,5.8,-,0.00,,Overcast,260,2013-10-10 12:53:00
6:53 AM,50.0,44.1,80,29.95,10.0,SW,4.6,-,N/A,,Overcast,220,2013-10-10 13:53:00
7:53 AM,48.9,45.0,86,29.95,10.0,Calm,Calm,-,0.00,,Overcast,0,2013-10-10 14:53:00
8:23 AM,50.0,45.0,83,29.96,10.0,West,4.6,-,N/A,,Overcast,270,2013-10-10 15:23:00
8:53 AM,50.0,46.0,86,29.96,10.0,Calm,Calm,-,N/A,,Overcast,0,2013-10-10 15:53:00
9:26 AM,50.0,46.9,89,29.97,2.5,Calm,Calm,-,0.01,Rain,Light Rain,0,2013-10-10 16:26:00
9:53 AM,50.0,48.0,93,29.97,3.0,Calm,Calm,-,0.02,Rain,Light Rain,0,2013-10-10 16:53:00
10:07 AM,50.0,46.9,89,29.98,4.0,North,3.5,-,0.00,Rain,Light Rain,360,2013-10-10 17:07:00
10:22 AM,50.0,48.0,93,29.98,2.0,Calm,Calm,-,0.01,Rain,Light Rain,0,2013-10-10 17:22:00
10:33 AM,50.0,48.0,93,29.98,4.0,Calm,Calm,-,0.01,,Overcast,0,2013-10-10 17:33:00
10:48 AM,51.8,48.2,88,29.98,6.0,ENE,3.5,-,0.01,,Overcast,60,2013-10-10 17:48:00
10:53 AM,50.0,48.9,96,29.99,5.0,ENE,3.5,-,0.01,,Overcast,60,2013-10-10 17:53:00
11:53 AM,50.0,48.0,93,30.00,4.0,ENE,3.5,-,N/A,,Overcast,70,2013-10-10 18:53:00
12:17 PM,50.0,48.0,93,30.01,2.5,ENE,3.5,-,N/A,,Overcast,60,2013-10-10 19:17:00
12:51 PM,50.0,48.2,94,30.01,1.8,ENE,3.5,-,0.01,Rain,Light Rain,70,2013-10-10 19:51:00
12:53 PM,50.0,48.0,93,30.01,1.8,East,5.8,-,0.01,Rain,Light Rain,80,2013-10-10 19:53:00
1:01 PM,50.0,48.0,93,30.01,2.5,East,8.1,-,0.01,,Overcast,80,2013-10-10 20:01:00
1:07 PM,50.0,46.9,89,30.01,3.0,East,6.9,-,0.01,,Overcast,80,2013-10-10 20:07:00
1:31 PM,51.1,48.0,89,30.01,2.5,ESE,5.8,-,0.01,,Overcast,110,2013-10-10 20:31:00
1:40 PM,51.1,48.0,89,30.01,4.0,SE,8.1,-,0.01,,Overcast,140,2013-10-10 20:40:00
1:53 PM,51.1,48.0,89,30.01,10.0,SE,5.8,-,0.01,,Overcast,140,2013-10-10 20:53:00
2:53 PM,52.0,48.0,86,30.02,10.0,SSE,8.1,-,N/A,,Overcast,150,2013-10-10 21:53:00
3:50 PM,53.6,48.2,82,30.02,10.0,SE,5.8,-,N/A,,Overcast,140,2013-10-10 22:50:00
3:53 PM,53.1,48.0,83,30.02,10.0,SSE,4.6,-,N/A,,Overcast,150,2013-10-10 22:53:00
4:53 PM,52.0,46.9,83,30.03,10.0,East,4.6,-,N/A,,Overcast,80,2013-10-10 23:53:00
5:53 PM,51.1,46.9,86,30.02,10.0,SSE,4.6,-,N/A,,Overcast,150,2013-10-11 00:53:00
6:53 PM,50.0,46.0,86,30.02,10.0,SE,3.5,-,N/A,,Mostly Cloudy,130,2013-10-11 01:53:00
7:53 PM,48.0,46.0,93,30.03,10.0,SSW,3.5,-,N/A,,Overcast,200,2013-10-11 02:53:00
8:53 PM,46.9,46.0,97,30.04,10.0,Calm,Calm,-,N/A,,Overcast,0,2013-10-11 03:53:00
9:53 PM,46.9,45.0,93,30.06,10.0,Calm,Calm,-,N/A,,Overcast,0,2013-10-11 04:53:00
10:53 PM,46.0,44.1,93,30.08,10.0,Calm,Calm,-,N/A,,Overcast,0,2013-10-11 05:53:00
11:53 PM,44.1,43.0,96,30.07,10.0,South,3.5,-,N/A,,Partly Cloudy,170,2013-10-11 06:53:00